User: anonymous
Location: ASU Dark Sky Observatory
(36.2504°N, 81.4125°W)
Time: 04:13:10
(UTC-04:00)
Language:

ETS-7 - Orbit

View from above orbital plane
View from above orbital plane
View from above satellite
View from above satellite

Ground track
Ground track

The orbit data is extracted from the following two-line orbital elements,

1 25064U 97074B   14232.09949051  .00014856  00000-0  25396-3 0  2291
2 25064 034.9617 209.6045 0004714 284.4755 120.1684 15.50361470931092
Epoch (UTC): 20 August 2014 02:23:15
Eccentricity: 0.0004714
inclination: 34.9617°
perigee height: 412 km
apogee height: 419 km
right ascension of ascending node: 209.6045°
argument of perigee: 284.4755°
revolutions per day: 15.50361470
mean anomaly at epoch: 120.1684°
orbit number at epoch: 93109

The dashed part of the orbit path shows where the satellite is in the earth's shadow,  

DLR